Location: *
(46.4333°N, 11.1000°E)
Time: 18:32:20
(UTC+00:00)

Daily predictions for brighter satellites

Satellite Brightness Start Highest point End
(mag) Time Altitude Azimuth Time Altitude Azimuth Time Altitude Azimuth
USA 186 2.7 18:12:28 10° SE 18:15:30 31° ENE 18:18:27 10° N
Cosmos 1269 Rocket 4.4 18:12:18 10° SSW 18:17:34 73° WNW 18:22:54 10° NNE
STARLINK-1104 3.7 18:13:58 10° WNW 18:18:08 89° SW 18:22:17 10° ESE
STARLINK-1144 3.7 18:18:56 10° WNW 18:23:06 83° SSW 18:27:14 10° SE
ARGOS Delta rocket 4.1 18:21:22 10° SSE 18:26:34 75° ENE 18:32:00 10° N
STARLINK-1103 3.7 18:23:55 10° WNW 18:28:04 78° SSW 18:32:12 10° SE
Cosmos 292 Rocket 4.0 18:23:23 10° NNW 18:28:06 53° ENE 18:32:47 10° SE
Cosmos 2251 Rocket 3.9 18:23:05 10° S 18:28:07 42° ESE 18:33:10 10° NE
Cosmos 1953 2.9 18:27:33 10° SSE 18:31:10 35° E 18:34:49 10° NNE
Cosmos 1455 Rocket 4.0 18:26:57 10° SSW 18:31:11 53° WNW 18:35:29 10° N
YAOGAN 1 4.5 18:27:35 10° SSW 18:31:30 33° W 18:35:27 10° NNW
MONITOR-E 4.2 18:29:36 10° SSE 18:32:07 41° ENE 18:34:38 10° N
STARLINK-1101 3.8 18:28:55 10° WNW 18:33:03 72° SW 18:37:07 10° SE
Cosmos 2315 Rocket 4.0 18:28:07 10° S 18:34:25 81° E 18:40:50 10° N
Resurs 01 Rocket 3.0 18:34:55 11° ESE 18:37:54 21° ENE 18:41:11 10° NNE
STARLINK-1102 3.9 18:33:55 10° WNW 18:38:02 67° SW 18:41:55 11° SE
FREGAT/IRIS 2.3 18:35:24 10° SSE 18:38:05 61° ENE 18:40:48 10° N
Cosmos 1626 Rocket 3.6 18:34:38 10° N 18:39:03 83° W 18:43:23 10° S
Aureole 3 4.0 18:35:02 10° S 18:39:19 57° E 18:44:51 10° NNE
Cosmos 2369 Rocket 2.3 18:33:45 10° NNW 18:39:26 63° ENE 18:45:02 10° SE
NOSS 3-3 (A) 4.1 18:34:55 10° SSW 18:40:30 51° ESE 18:46:45 10° NE
NOSS 3-3 (C) 4.1 18:35:02 10° SSW 18:40:36 50° ESE 18:46:51 10° NE
Cosmos 1626 3.3 18:38:06 10° NNW 18:41:40 45° W 18:45:12 10° SSW
STARLINK-1111 3.9 18:38:53 10° WNW 18:42:59 62° SW 18:46:42 12° SE
Cosmos 1943 Rocket 2.2 18:39:54 10° NNW 18:45:29 89° ENE 18:51:04 10° SSE
Cosmos 1437 3.5 18:43:05 10° N 18:45:48 29° ENE 18:47:33 17° SE
IRIDIUM 104 4.4 18:40:44 10° N 18:45:53 55° E 18:50:59 10° SSE
SL-8 R/B 3.7 18:41:11 10° WNW 18:45:59 86° SSW 18:49:51 16° ESE
ADEOS Rocket 4.2 18:40:09 10° N 18:46:30 49° WNW 18:52:12 10° SW
Cosmos 1709 Rocket 4.4 18:40:32 10° NNW 18:46:41 68° W 18:52:44 10° S
STARLINK-1073 4.0 18:43:53 10° WNW 18:47:58 57° SW 18:51:29 13° SE
CZ-2C R/B 4.2 18:44:15 10° NNE 18:48:42 40° E 18:53:04 10° SSE
Cosmos 1602 Rocket 3.6 18:44:21 10° N 18:48:50 85° W 18:53:13 10° S
Cosmos 1470 3.3 18:47:49 10° SSW 18:51:39 62° W 18:55:33 10° N
STARLINK-1121 4.2 18:48:52 10° WNW 18:52:54 53° SW 18:56:15 14° SE
Cosmos 1908 4.4 18:52:23 16° SE 18:54:17 23° E 18:57:24 10° NE
Cosmos 2263 4.3 18:49:11 10° NNW 18:54:46 61° ENE 18:59:31 14° SE
IRIDIUM 114 4.3 18:49:51 10° N 18:55:04 67° E 19:00:15 10° SSE
Ariane Rocket 3.4 18:50:37 10° S 18:55:39 66° WSW 19:00:43 10° NNW
STARLINK-1106 4.3 18:53:51 10° WNW 18:57:52 49° SW 19:01:02 15° SSE
Abrixas rocket 2.1 18:56:23 10° W 18:59:20 71° NNW 19:01:18 19° ENE
Aureole 2 Rocket 2.6 18:56:49 10° NNW 19:00:18 72° WSW 19:03:32 11° SSE
Cosmos 1726 Rocket 4.3 18:57:25 11° SSE 19:01:00 31° E 19:04:56 10° NNE
Cosmos 2074 Rocket 4.0 18:55:26 10° N 19:01:42 66° E 19:07:57 10° SSE
STARLINK-1112 4.4 18:58:52 10° WNW 19:02:50 45° SW 19:05:49 16° SSE
Cosmos 1943 3.3 18:58:09 10° S 19:03:37 53° ESE 19:09:08 10° NE
ATLAS 2AS CENTAUR R/B 3.3 18:56:16 10° NW 19:03:44 49° NE 19:08:47 19° ESE
IRIDIUM 103 4.3 18:59:00 10° N 19:04:15 80° E 19:09:29 10° S
ISS -3.1 19:02:11 10° WNW 19:05:27 48° SW 19:07:16 22° SSE
Cosmos 1825 Rocket 3.6 19:02:12 10° N 19:06:34 58° ENE 19:10:01 15° SSE
USA 234 3.6 19:00:47 10° ENE 19:06:56 42° SE 19:13:04 10° SSW
SL-08 RB Rocket 3.6 19:03:25 10° SSE 19:07:58 86° ENE 19:12:35 10° NNW
SPOT 3 Rocket 3.5 19:06:52 10° SSE 19:12:04 76° ENE 19:17:18 10° NNW
Cosmos 1758 Rocket 3.5 19:13:59 10° N 19:18:21 89° WSW 19:22:13 13° S
SJ-6B 3.5 19:14:29 10° S 19:18:31 59° W 19:22:38 10° NNW
MOS 1 Rocket 3.7 19:18:04 10° NNE 19:23:20 57° E 19:28:40 10° S
SL-16 R/B 4.2 19:20:20 10° WSW 19:25:16 30° NW 19:30:14 10° N
Cosmos 1953 Rocket 3.6 19:21:07 10° N 19:25:34 63° E 19:27:53 27° SSE
CZ-2C R/B 4.0 19:23:28 10° S 19:28:10 43° W 19:32:46 10° NNW
Cosmos 1818 3.5 19:23:30 10° SSW 19:28:51 63° ESE 19:34:15 10° NE
Cosmos 1606 Rocket 3.4 19:24:37 10° S 19:29:01 78° E 19:33:30 10° NNE
Terra 3.9 19:28:43 12° ENE 19:29:09 12° NE 19:30:58 10° NNE
Cosmos 921 Rocket 4.0 19:28:47 10° N 19:32:26 28° ENE 19:32:50 28° ENE
Cosmos 614 Rocket 4.1 19:27:49 10° S 19:32:52 51° ESE 19:37:55 10° NNE
BREEZE M DEB (TANK) 3.8 19:22:46 10° SW 19:32:55 54° SSE 19:34:30 34° E
Cosmos 407 Rocket 3.7 19:30:02 15° S 19:33:56 43° ESE 19:38:47 10° NE
Cosmos 2228 2.9 19:30:49 10° S 19:35:06 84° E 19:39:27 10° N
SL-24 R/B 4.1 19:30:46 10° N 19:35:06 74° WNW 19:38:57 10° SSW
CZ-2C R/B 2.5 19:30:11 10° NNE 19:35:21 67° ESE 19:40:31 10° S
Cosmos 1656 Rocket 3.6 19:31:35 10° NNW 19:37:18 85° ENE 19:40:14 30° SSE
Cosmos 2327 Rocket 4.5 19:32:47 10° N 19:39:07 87° E 19:44:16 17° S
ARGOS 4.4 19:36:13 10° SSW 19:41:15 39° W 19:46:17 10° NNW
Cosmos 1295 Rocket 4.5 19:36:49 10° N 19:43:04 66° ENE 19:46:25 29° SSE
SAR-Lupe-2 4.5 19:39:45 10° NNE 19:42:08 34° NE 19:42:08 34° NE
MetOp-A 4.5 19:38:31 13° S 19:43:15 65° WSW 19:48:37 10° NNW
STARLINK-1235 4.5 19:41:56 10° NW 19:44:42 27° N 19:45:11 26° NNE
SL-4 R/B 2.8 19:41:53 10° SW 19:43:45 28° SSW 19:43:45 28° SSW
BREEZE-M DEB (TANK) 2.9 19:40:15 10° WNW 19:45:39 88° SSW 19:45:58 71° ESE
Cosmos 2341 Rocket 4.2 19:39:57 10° N 19:46:11 52° ENE 19:48:37 35° SE
COSMOS 2455 3.5 19:40:30 10° NNW 19:46:13 42° NE 19:48:18 32° E
Cosmos 1603 4.2 19:41:43 10° SW 19:47:16 60° WNW 19:52:51 10° NNE
Cosmos 1726 3.5 19:44:04 10° SSW 19:47:36 39° WNW 19:51:09 10° N
Cosmos 1340 Rocket 2.8 19:47:47 57° ESE 19:47:54 57° E 19:51:53 10° NNE
ERS-1 Rocket 4.0 19:47:59 28° ENE 19:48:26 28° ENE 19:52:41 10° N
STARLINK-1234 4.4 19:46:51 10° NW 19:49:31 27° NNE 19:49:39 27° NNE
STARLINK-1228 4.4 19:47:01 10° NW 19:49:30 26° N 19:49:30 26° N
H-2A R/B 4.0 19:45:49 10° SSW 19:50:13 27° W 19:54:34 10° NW
Cosmos 1328 4.3 19:49:54 10° NNW 19:53:52 59° W 19:55:27 33° SSW
Resurs 1-3 4.3 19:51:24 21° S 19:54:08 51° W 19:58:26 10° NNW
Cosmos 1703 4.4 20:01:32 10° NNW 20:05:16 41° W 20:06:52 27° SW
Cosmos 2218 Rocket 4.3 20:00:59 10° N 20:06:56 46° ENE 20:07:52 43° E
Cosmos 1461 3.2 20:03:15 10° NNW 20:07:43 58° NE 20:07:56 57° ENE
Cosmos 1023 Rocket 4.3 20:11:23 57° SSE 20:12:18 71° ESE 20:17:26 10° NNE
Resurs 01 Rocket 2.5 20:12:28 31° SSW 20:14:05 46° W 20:18:21 10° NNW
APEX 4.4 20:11:28 10° NNW 20:18:11 78° WSW 20:19:41 52° S
USA 245 4.1 20:18:18 57° SSE 20:19:30 89° ENE 20:25:41 10° NNW
Cosmos 2181 Rocket 3.9 20:18:41 54° SE 20:19:46 62° E 20:25:53 10° NNE
In-Cosmos 22 Rocket 4.4 20:14:07 10° N 20:19:50 53° ENE 20:20:12 52° E
Cosmos 2058 Rocket 3.5 20:18:19 37° SW 20:19:56 61° W 20:24:26 10° N
Cosmos 1300 4.1 20:23:46 31° NNE 20:23:46 31° NNE 20:25:52 10° N
NOSS 3-4 (A) 3.8 20:15:26 10° NW 20:22:27 78° SW 20:24:57 46° SSE
NOSS 3-4 (C) 3.8 20:15:32 10° NW 20:22:33 79° SW 20:25:02 46° SSE
Cosmos 2369 Rocket 4.3 20:18:43 10° NW 20:22:56 22° W 20:27:07 10° SSW
Landsat 7 3.7 20:24:18 81° ENE 20:24:18 81° ENE 20:29:04 10° NNW
SL-8 Rocket 3.9 20:25:26 10° N 20:31:47 82° E 20:32:55 62° SSE
CARTOSAT-1 4.5 20:36:52 42° NNE 20:36:52 42° NNE 20:39:55 10° N
Cosmos 864 Rocket 4.3 20:30:01 10° N 20:36:15 69° E 20:36:40 67° ESE
SPOT 5 3.5 20:39:20 41° NNE 20:39:20 41° NNE 20:42:22 10° N
SL-24 R/B - RUBIN 2 4.2 20:32:48 10° SW 20:38:24 87° NW 20:44:46 10° NE
Cosmos 2058 4.2 20:35:29 10° N 20:37:54 33° N 20:37:54 33° N
Cosmos 2366 rocket 3.8 20:35:56 10° N 20:42:08 78° E 20:42:31 75° ESE
Spot 2 Rocket 4.1 20:46:23 46° WSW 20:47:02 48° W 20:52:00 10° NNW
USA 234 3.4 20:43:41 10° NE 20:50:12 70° NNW 20:56:41 10° WSW
Cosmos 1140 Rocket 4.0 20:51:22 41° WSW 20:52:52 56° WNW 20:57:59 10° NNE
Cosmos 1959 Rocket 4.4 20:46:45 10° N 20:53:07 85° W 20:53:38 76° SSW
ATLAS 2AS CENTAUR R/B 3.3 20:47:36 10° NW 20:54:45 48° WSW 20:56:15 42° SSW
Iridium 4 Rocket 4.3 20:53:58 10° N 20:56:43 38° NNW 20:56:43 38° NNW
Meteor 2-12 Rocket 4.3 20:53:59 10° N 20:59:54 81° NE 20:59:54 81° NE
BREEZE M DEB (TANK) 3.7 21:02:08 72° E 21:02:08 72° E 21:15:00 10° ENE
Terra 2.8 21:07:37 44° N 21:07:37 44° N 21:10:54 10° NNW
Cosmos 1697 Rocket 3.9 21:02:28 10° NNW 21:06:58 32° NE 21:06:58 32° NE
CZ-4C R/B 4.0 21:09:14 10° NNW 21:15:19 33° NNE 21:17:32 28° ENE
Mayak 1.5 21:13:02 10° NNE 21:13:23 12° NNE 21:13:23 12° NNE
SL-08 R/B 4.5 21:11:29 10° N 21:17:08 76° NNW 21:17:08 76° NNW
Cosmos 1821 Rocket 4.3 21:18:31 10° N 21:23:55 60° NNE 21:23:55 60° NNE
ERS-1 Rocket 4.2 21:27:58 37° WNW 21:27:58 37° WNW 21:31:49 10° NNW
COSMOS 2455 3.8 21:26:33 10° NW 21:31:27 40° W 21:31:27 40° W
Cosmos 1980 Rocket 3.7 21:29:56 10° N 21:33:52 28° NNE 21:33:52 28° NNE
ATLAS CENTAUR R/B 4.2 21:41:31 10° NNW 21:42:19 14° N 21:42:19 14° N
Cosmos 2082 Rocket 4.5 22:02:45 15° NE 22:02:45 15° NE 22:03:45 10° NE
ATLAS 5 CENTAUR R/B 3.9 22:02:17 22° N 22:02:17 22° N 22:04:50 10° NNE
Cosmos 1833 Rocket 4.5 22:21:36 25° NNE 22:21:36 25° NNE 22:23:50 10° NNE
USA 234 4.4 22:26:43 10° NE 22:32:39 39° NNW 22:38:35 10° WNW
Mayak 1.9 22:49:28 10° NNW 22:49:57 12° NNW 22:49:57 12° NNW
SL-16 R/B 3.8 22:57:17 10° NNW 23:00:33 30° N 23:00:33 30° N
CZ-4C R/B 3.4 22:57:31 10° NW 23:02:42 54° NW 23:02:42 54° NW
Cosmos 2360 Rocket 4.1 23:06:59 10° N 23:10:44 24° NNE 23:10:44 24° NNE
Cosmos 2322 Rocket 3.8 23:08:37 10° NNW 23:11:48 30° N 23:11:48 30° N
Cosmos 1980 Rocket 4.2 23:13:40 10° NW 23:15:38 22° NW 23:15:38 22° NW
Cosmos 2344 4.4 23:29:21 10° NW 23:38:51 68° WSW 23:38:51 68° WSW
Cosmos 2082 Rocket 3.9 23:44:35 29° NNW 23:44:35 29° NNW 23:47:54 10° NNE
CZ-2D R/B 4.4 23:46:32 10° NE 23:48:41 17° ENE 23:48:41 17° ENE
